Weather History for Troy, MI

Change the Weather History Date:

Tuesday, December 4, 2012

  Actual Average (KDET) Record (KDET)
Temperature  
Mean Temperature 56 °F -  
Max Temperature 66 °F 37 °F 62 °F (1953)
Min Temperature 45 °F 27 °F 9 °F (2002)
Degree Days  
Heating Degree Days 10    
Growing Degree Days 6 (Base 50)    
Moisture  
Dew Point 47 °F    
Average Humidity 74    
Maximum Humidity 88    
Minimum Humidity 59    
Precipitation  
Precipitation 0.00 in - - ()
Sea Level Pressure  
Sea Level Pressure 30.00 in    
Wind  
Wind Speed 11 mph (WSW)    
Max Wind Speed 20 mph    
Max Gust Speed 29 mph    
Visibility 10 miles    
Events Rain    
Averages and records for this station are not official NWS values.
T = Trace of Precipitation, MM = Missing Value Source: NWS Daily Summary

Daily Weather History Graph

Daily Weather History Graph

Search for Another Location

Airport:

Trip Planner

Search our weather history database for the weather conditions in past years. The results will help you decide how hot, cold, wet, or windy it might be!

Date:

Astronomy

Dec. 04, 2012 Rise Set
Actual Time 7:46 AM EST 4:59 PM EST
Civil Twilight 7:14 AM EST 5:31 PM EST
Nautical Twilight 6:39 AM EST 6:06 PM EST
Astronomical Twilight 6:05 AM EST 6:40 PM EST
Moon 10:51 PM EST (12/4) 11:35 AM EST (12/4)
Length of Visible Light 10h 16m
Length of Day
9h 13m
Waning Gibbous, 69% of the Moon is Illuminated
Dec 4
Waning Gibbous
Dec 6
Last Quarter
Dec 13
New
Dec 20
First Quarter
Dec 28
Full

Hourly Weather History & Observations

Time (EST) Temp. Windchill Dew Point Humidity Pressure Visibility Wind Dir Wind Speed Gust Speed Precip Events Conditions
12:14 AM 60.8 °F - 56.7 °F 86% 29.94 in 10.0 mi South 9.2 mph - N/A   Mostly Cloudy
12:35 AM 63.0 °F - 57.2 °F 81% 29.94 in 10.0 mi SSW 12.7 mph 18.4 mph N/A   Overcast
12:55 AM 66.2 °F - 56.8 °F 72% 29.94 in 10.0 mi SW 13.8 mph 28.8 mph N/A   Overcast
1:14 AM 65.7 °F - 56.8 °F 73% 29.94 in 10.0 mi SSW 15.0 mph 24.2 mph N/A   Overcast
1:35 AM 65.3 °F - 56.7 °F 74% 29.94 in 10.0 mi SSW 19.6 mph 26.5 mph N/A   Overcast
1:54 AM 64.6 °F - 56.5 °F 75% 29.93 in 10.0 mi SW 15.0 mph 21.9 mph N/A   Mostly Cloudy
2:15 AM 64.4 °F - 56.3 °F 75% 29.93 in 10.0 mi SW 15.0 mph 21.9 mph N/A   Overcast
2:35 AM 64.2 °F - 56.3 °F 75% 29.94 in 10.0 mi SSW 13.8 mph 21.9 mph N/A   Overcast
2:54 AM 64.0 °F - 55.9 °F 75% 29.94 in 10.0 mi SW 11.5 mph 24.2 mph N/A   Overcast
3:15 AM 63.9 °F - 55.8 °F 75% 29.94 in 10.0 mi SW 19.6 mph 24.2 mph N/A   Overcast
3:55 AM 63.3 °F - 55.4 °F 75% 29.93 in 10.0 mi SW 15.0 mph 24.2 mph N/A   Mostly Cloudy
4:15 AM 63.1 °F - 55.0 °F 75% 29.93 in 10.0 mi SW 12.7 mph 20.7 mph N/A   Overcast
4:34 AM 62.6 °F - 54.7 °F 75% 29.93 in 10.0 mi SW 12.7 mph 24.2 mph N/A   Mostly Cloudy
4:55 AM 62.1 °F - 54.5 °F 76% 29.94 in 10.0 mi SW 11.5 mph 19.6 mph N/A   Mostly Cloudy
5:15 AM 61.9 °F - 54.1 °F 76% 29.93 in 10.0 mi SW 10.4 mph 20.7 mph N/A   Mostly Cloudy
5:34 AM 61.9 °F - 54.0 °F 75% 29.93 in 10.0 mi SW 13.8 mph - N/A   Overcast
5:55 AM 61.7 °F - 53.8 °F 75% 29.93 in 10.0 mi SW 10.4 mph 17.3 mph N/A   Mostly Cloudy
6:15 AM 61.7 °F - 53.6 °F 75% 29.93 in 10.0 mi SW 10.4 mph 16.1 mph N/A   Overcast
6:34 AM 61.7 °F - 53.6 °F 75% 29.93 in 10.0 mi SW 10.4 mph 16.1 mph N/A   Overcast
6:55 AM 61.9 °F - 53.6 °F 74% 29.94 in 10.0 mi SW 12.7 mph 17.3 mph N/A   Overcast
7:14 AM 61.9 °F - 53.6 °F 74% 29.94 in 10.0 mi SW 10.4 mph - N/A   Overcast
7:35 AM 62.2 °F - 53.6 °F 73% 29.94 in 10.0 mi SW 8.1 mph - N/A   Overcast
7:54 AM 61.7 °F - 54.3 °F 77% 29.95 in 7.0 mi SW 10.4 mph 17.3 mph N/A Rain Heavy Rain
8:15 AM 60.8 °F - 54.5 °F 80% 29.96 in 10.0 mi WSW 8.1 mph 17.3 mph N/A Rain Light Rain
8:35 AM 60.4 °F - 54.5 °F 81% 29.96 in 10.0 mi WSW 6.9 mph - N/A Rain Rain
8:54 AM 59.0 °F - 55.2 °F 87% 29.98 in 4.0 mi WNW 17.3 mph 24.2 mph N/A Rain Rain
9:14 AM 56.3 °F - 52.7 °F 88% 29.99 in 5.0 mi NW 11.5 mph - N/A Rain Rain
9:35 AM 54.7 °F - 50.9 °F 87% 30.00 in 7.0 mi WNW 10.4 mph - N/A Rain Rain
9:55 AM 54.5 °F - 50.0 °F 85% 30.00 in 7.0 mi WNW 5.8 mph - N/A Rain Light Rain
10:15 AM 54.1 °F - 49.6 °F 85% 30.01 in 7.0 mi West 9.2 mph - N/A Rain Light Rain
10:35 AM 53.6 °F - 48.2 °F 82% 30.02 in 10.0 mi West 10.4 mph 16.1 mph N/A Rain Light Rain
10:55 AM 52.7 °F - 45.9 °F 78% 30.01 in 10.0 mi WNW 8.1 mph - N/A Rain Light Rain
11:15 AM 52.7 °F - 46.6 °F 80% 30.00 in 10.0 mi West 5.8 mph - N/A   Light Drizzle
11:35 AM 52.2 °F - 44.1 °F 74% 30.01 in 10.0 mi West 8.1 mph - N/A Rain Light Rain
11:54 AM 51.6 °F - 45.7 °F 80% 30.01 in 10.0 mi WSW 9.2 mph - N/A Rain Rain
12:15 PM 51.1 °F - 45.5 °F 81% 30.00 in 10.0 mi WSW 5.8 mph - N/A Rain Light Rain
12:35 PM 50.5 °F - 45.0 °F 81% 30.00 in 10.0 mi WSW 4.6 mph - N/A Rain Light Rain
1:15 PM 51.1 °F - 44.8 °F 79% 29.98 in 10.0 mi WSW 5.8 mph - N/A   Overcast
1:34 PM 51.1 °F - 45.3 °F 81% 29.99 in 10.0 mi WSW 6.9 mph - N/A   Overcast
1:55 PM 51.3 °F - 45.7 °F 81% 29.98 in 10.0 mi WSW 4.6 mph - N/A Rain Light Rain
2:15 PM 51.8 °F - 46.0 °F 81% 29.99 in 10.0 mi WSW 4.6 mph - N/A   Overcast
2:35 PM 52.0 °F - 45.9 °F 80% 29.99 in 10.0 mi West 5.8 mph - N/A   Overcast
2:55 PM 52.2 °F - 45.5 °F 78% 30.00 in 10.0 mi WSW 4.6 mph - N/A   Overcast
3:14 PM 52.3 °F - 44.6 °F 75% 30.00 in 10.0 mi WSW 6.9 mph - N/A   Mostly Cloudy
3:35 PM 52.7 °F - 44.4 °F 73% 30.00 in 10.0 mi SW 6.9 mph - N/A   Scattered Clouds
3:55 PM 52.3 °F - 43.7 °F 72% 30.00 in 10.0 mi WSW 9.2 mph - N/A   Scattered Clouds
4:14 PM 52.3 °F - 43.3 °F 71% 30.01 in 10.0 mi West 4.6 mph - N/A   Clear
4:35 PM 52.0 °F - 42.3 °F 69% 30.02 in 10.0 mi WSW 5.8 mph - N/A   Clear
4:54 PM 51.6 °F - 41.4 °F 68% 30.02 in 10.0 mi WSW 6.9 mph - N/A   Clear
5:15 PM 50.9 °F - 41.0 °F 69% 30.02 in 10.0 mi WSW 6.9 mph - N/A   Clear
5:34 PM 50.5 °F - 41.2 °F 70% 30.02 in 10.0 mi SW 4.6 mph - N/A   Clear
5:55 PM 50.2 °F - 41.4 °F 72% 30.03 in 10.0 mi SW 6.9 mph - N/A   Clear
6:15 PM 49.6 °F - 41.2 °F 73% 30.03 in 10.0 mi SW 5.8 mph - N/A   Clear
6:34 PM 49.1 °F - 41.0 °F 74% 30.04 in 10.0 mi WSW 5.8 mph - N/A   Clear
6:55 PM 48.6 °F - 40.6 °F 74% 30.05 in 10.0 mi WSW 5.8 mph - N/A   Clear
7:14 PM 48.4 °F - 39.7 °F 72% 30.05 in 10.0 mi WSW 6.9 mph - N/A   Clear
7:35 PM 48.7 °F - 37.6 °F 65% 30.05 in 10.0 mi WSW 8.1 mph - N/A   Clear
7:54 PM 48.7 °F - 35.6 °F 60% 30.05 in 10.0 mi West 10.4 mph - N/A   Clear
8:14 PM 48.6 °F - 34.7 °F 59% 30.06 in 10.0 mi WSW 6.9 mph - N/A   Clear
8:35 PM 47.7 °F - 34.3 °F 60% 30.06 in 10.0 mi WSW 6.9 mph - N/A   Clear
8:54 PM 47.3 °F - 34.3 °F 61% 30.07 in 10.0 mi WSW 5.8 mph - N/A   Clear
9:15 PM 47.1 °F - 34.5 °F 62% 30.07 in 10.0 mi West 8.1 mph - N/A   Clear
9:34 PM 46.8 °F - 34.7 °F 63% 30.07 in 10.0 mi West 8.1 mph - N/A   Clear
9:55 PM 47.3 °F - 34.7 °F 62% 30.08 in 10.0 mi WNW 12.7 mph 17.3 mph N/A   Clear
10:14 PM 47.7 °F - 34.7 °F 61% 30.09 in 10.0 mi West 11.5 mph - N/A   Clear
10:34 PM 47.3 °F - 34.5 °F 61% 30.09 in 10.0 mi West 8.1 mph - N/A   Clear
10:55 PM 46.8 °F - 34.0 °F 61% 30.09 in 10.0 mi West 9.2 mph - N/A   Clear
11:14 PM 46.0 °F 42.5 °F 33.6 °F 62% 30.10 in 10.0 mi WNW 6.9 mph - N/A   Clear
11:35 PM 45.7 °F 41.5 °F 32.0 °F 59% 30.11 in 10.0 mi WNW 8.1 mph 16.1 mph N/A   Clear
11:54 PM 45.1 °F 39.1 °F 32.0 °F 60% 30.13 in 10.0 mi WNW 12.7 mph 19.6 mph N/A   Clear